Regional Weather Roundup
Issued by NWS Kansas City/Pleasant Hill, MO

Home | Current Version | Previous Version | Graphics & Text | Print | Product List | Glossary Off
Versions: 1 2 3 4 5 6 7 8 9 10 11 12 13 14 15 16 17 18 19 20 21 22 23 24 25 26 27 28

000
ASUS43 KEAX 191610
RWREAX

WEATHER ROUNDUP FOR EASTERN KANSAS AND NORTHWEST MISSOURI
NATIONAL WEATHER SERVICE KANSAS CITY/PLEASANT HILL MO
1000 AM CST SUN NOV 19 2017

KSZ040-057-103>105-MOZ028-029-037-043-191700-
...KANSAS CITY METROPOLITAN AREA...

CITY           SKY/WX    TMP DP  RH WIND       PRES   REMARKS
K.C. INTL      SUNNY     37  24  59 S5        30.28S WCI  33
K.C. DOWNTOWN  SUNNY     39  23  52 CALM      30.30S
LEES SUMMIT    SUNNY     38  22  52 NW5       30.30S WCI  34
OLATHE - IXD   SUNNY     38  22  52 CALM      30.30S
OLATHE - OJC   SUNNY     39  21  48 CALM      30.30R
LAWRENCE       SUNNY     40  29  64 S5        30.30S

$$

MOZ001>008-011>017-020>025-030>033-038>040-044>046-053-054-191700-
...NORTHERN AND CENTRAL MISSOURI...

CITY           SKY/WX    TMP DP  RH WIND       PRES   REMARKS
ST. JOSEPH     SUNNY     36  24  62 S6        30.28F WCI  31
MOSBY          SUNNY     37  19  48 CALM      30.30S
WARRENSBURG    SUNNY     36  21  55 NW5       30.30F WCI  32
WHITEMAN AFB   SUNNY     38  18  45 NW6       30.26S WCI  33
CLINTON        SUNNY     37  23  56 MISG      30.32S
SEDALIA        SUNNY     37  23  56 N9        30.31R WCI  30
WARSAW         NOT AVBL
CHILLICOTHE      N/A     37  21  52 VRB5      30.28F WCI  33
KIRKSVILLE     SUNNY     33  19  56 NW8       30.25R WCI  26

$$

MOZ041-047>049-056>058-063>065-088>090-097-191700-
...EASTERN AND SOUTHERN MISSOURI...

CITY           SKY/WX    TMP DP  RH WIND       PRES   REMARKS
ST. LOUIS INTL SUNNY     35  19  52 NW13G20   30.23R WCI  26
SPIRIT OF STL  SUNNY     36  19  50 W12       30.24R WCI  28
COLUMBIA       SUNNY     35  19  52 NW16      30.28R WCI  25
JEFFERSON CITY SUNNY     35  19  52 NW10      30.30R WCI  27
ROLLA          SUNNY     34  20  56 NW13      30.26R WCI  25
OSAGE BEACH    SUNNY     37  18  46 N8        30.31R WCI  31
SPRINGFIELD    SUNNY     39  25  57 N14       30.29R WCI  31
BRANSON        SUNNY     41  21  45 NW10G16   30.31R WCI  35
JOPLIN         SUNNY     42  29  59 N7        30.33S
WEST PLAINS    SUNNY     42  19  39 N12G21    30.27R

$$

IAZ060-094-KSZ022-034>040-054-083-096-NEZ052-066-093-191700-
...KANSAS...SOUTHEAST NEBRASKA AND IOWA...

CITY           SKY/WX    TMP DP  RH WIND       PRES   REMARKS
TOPEKA         SUNNY     41  29  62 S6        30.29S
MANHATTAN      SUNNY     39  28  64 S5        30.27F
EMPORIA        SUNNY     44  29  55 S8        30.29S
CHANUTE        SUNNY     43  31  62 CALM      30.33S
WICHITA        MOSUNNY   42  30  62 CALM      30.30F
OMAHA          MOSUNNY   35  25  66 S8        30.20F WCI  29
LINCOLN        SUNNY     38  29  70 S6        30.22S WCI  33
FALLS CITY     SUNNY     38  28  67 S7        30.25S WCI  33
LAMONI         SUNNY     34  22  61 W7        30.22S WCI  28
DES MOINES     MOSUNNY   33  21  61 W8        30.20S WCI  26

$$





USA.gov is the U.S. government's official web portal to all federal, state and local government web resources and services.